Current Version              Previous Version:    01  02  03  04  05  06  07  08  09  10  11  12  13  14  15  16  17  18  19  20  21  22  23  24  25  26  27  28  29  30  
   31  32  33  34  35  36  37  38  39  40  41  42  43  44  45  46  47  48  49  50  51  52  53  54  55  56  57  58  59  60  

[Printable]
814
ASUS44 KEWX 012210
RWRTX
SOUTH TEXAS REGIONAL WEATHER ROUNDUP
NATIONAL WEATHER SERVICE AUSTIN/SAN ANTONIO TX
500 PM CDT WED OCT 01 2014

NOTE: "FAIR" INDICATED FEW OR NO CLOUDS BELOW 12,000 FEET WITH NO
SIGNIFICANT WEATHER AND/OR OBSTRUCTIONS TO VISIBILITY.

* - THESE STATIONS ARE NOT NWS OR FAA STATIONS...AND ARE NOT SUBJECT
    TO NWS AND FAA QUALITY CONTROL.

TXZ171-172-183>190-012300-
TEXAS HILL COUNTRY AND EDWARDS PLATEAU

CITY           SKY/WX    TMP DP  RH WIND       PRES   REMARKS
JUNCTION       SUNNY     92  63  38 S12       29.76F HX  93
*LLANO         SUNNY     91  68  46 S9        29.78F HX  95
BURNET         SUNNY     89  65  44 S10       29.79F HX  91
*HORSESHOE BAY SUNNY     91  64  40 S8G16     29.76F HX  92
*KERRVILLE     SUNNY     89  69  51 S9        29.79F HX  93
*FREDERICKSBRG SUNNY     88  66  48 S9        29.79F HX  90
*ROCKSPRINGS   SUNNY     88  64  45 S9        29.83S
*BOERNE STAGE  MOSUNNY   91  64  40 S6        29.79F HX  93
*CASTROVILLE   SUNNY     95  61  32 S7        29.76S HX  95
HONDO          SUNNY     95  66  38 S13       29.76F HX  98
*UVALDE        SUNNY     93  69  45 SE9       29.75F HX  98
DEL RIO        MOSUNNY   89  67  47 SE10      29.70F HX  92
LAUGHLIN AFB   MOSUNNY   90  69  50 SE9       29.71F HX  94
CARRIZO SPRGS  SUNNY     91  70  49 SE10      29.71F HX  97
$$

TXZ173-191>194-202-209-217>225-228-012300-
CENTRAL AND SOUTH CENTRAL TEXAS

CITY           SKY/WX    TMP DP  RH WIND       PRES   REMARKS
GEORGETOWN     MOSUNNY   91  66  43 S12       29.76F HX  94
AUSTIN/BERGSTM MOSUNNY   93  68  43 S9        29.74F HX  97
AUSTIN/MABRY   MOSUNNY   90  68  48 S7        29.76F HX  94
*AUSTIN/EXEC   PTSUNNY   91  68  46 SE9       29.76F HX  95
*LAGO VISTA    SUNNY     89  65  44 S6        29.79S HX  91
SAN MARCOS     MOSUNNY   91  64  40 S10G17    29.76S HX  93
NEW BRAUNFELS  MOSUNNY   92  67  43 S13G18    29.75S HX  95
RANDOLPH AFB   PTSUNNY   92  67  42 S8        29.76F HX  95
PT SAN ANTONIO SUNNY     91  69  47 S10G18    29.74F HX  96
SAN ANTONIO    MOSUNNY   92  68  45 SE14      29.76F HX  96
STINSON FIELD  MOSUNNY   93  68  43 S10       29.73F HX  97
*PLEASANTON    PTSUNNY   94  64  36 S8        29.74F HX  96
*LA GRANGE     MOSUNNY   92  74  55 SE8       29.74S HX 102
*GIDDINGS      SUNNY     90  69  49 S8        29.79F HX  94
*GONZALES      SUNNY     93  70  48 S10       29.74S HX  99
$$

TXZ163>164-176>182-195>201-210>213-226-227-235-012300-
SOUTHEAST TEXAS

CITY           SKY/WX    TMP DP  RH WIND       PRES   REMARKS
COLLEGE STN    PTSUNNY   88  70  55 SE8       29.76F HX  93
*BRYAN         PTSUNNY   90  71  53 SE9       29.77F HX  96
*CALDWELL      SUNNY     91  66  43 SE10      29.79S HX  94
*CROCKETT        N/A     91  73  55 SE6       29.79F HX 100
*BRENHAM       SUNNY     92  71  49 S6        29.77S HX  98
HUNTSVILLE     MOSUNNY   92  66  42 S8        29.77F HX  94
CONROE         MOSUNNY   89  70  53 SE8       29.78S HX  94
HOUSTON BUSH   PTSUNNY   88  75  65 SE14      29.77S HX  97
HOUSTON HOBBY  MOSUNNY   88  74  63 SE13      29.77S HX  96
*HOUSTON SW AP PTSUNNY   82  69  65 S7        29.78S
PEARLAND       SUNNY     89  74  60 S13       29.80R HX  98
HOUSTON HOOKS  PTSUNNY   88  71  57 VRB5      29.77S HX  94
ELLINGTON FLD  NOT AVBL
SUGAR LAND     MOSUNNY   91  74  57 S13       29.77S HX 100
*HOUSTON EXEC  MOSUNNY   91  73  55 SW10      29.78S HX 100
*CLEVELAND MUN MOSUNNY   89  76  66 S8        29.79S HAZE    HX 100
*WHARTON       SUNNY     89  71  55 S12       29.78S HX  94
*COLUMBUS      FAIR      90  73  57 S7        29.76S HX  98
$$

TXZ214>216-236>238-012300-
THE UPPER TEXAS COAST

CITY           SKY/WX    TMP DP  RH WIND       PRES   REMARKS
*ORANGE        SUNNY     86  74  68 S12       29.81F HX  94
PORT ARTHUR    MOSUNNY   88  76  67 S13       29.79F HX  99
GALVESTON      SUNNY     85  78  80 S12       29.81S HX  96
ANGLETON       SUNNY     86  71  60 S12       29.80R HX  91
*BAY CITY      SUNNY     88  73  61 S9        29.79S HX  95
PALACIOS       SUNNY     86  76  71 S13       29.79S HX  96
$$

TXZ229>234-239>247-012300-
TEXAS COASTAL BEND AND RIO GRANDE PLAINS

CITY           SKY/WX    TMP DP  RH WIND       PRES   REMARKS
VICTORIA       MOSUNNY   91  74  57 S12G23    29.76F HX 100
*BEEVILLE      MOSUNNY   91  68  48 S9G17     29.75S HX  94
ROCKPORT       SUNNY     87  76  69 SE13      29.76F HX  97
*PORT ARANSAS  SUNNY     86  78  76 SE10G16   29.77S HX  97
*PORT LAVACA   MOSUNNY   87  75  67 S12       29.77S HX  96
*INGLESIDE     SUNNY     89  76  65 SE16      29.76S HX  99
CORPUS CHRISTI MOSUNNY   88  78  72 SE12      29.75S HX 101
CORPUS NAS     MOSUNNY   88  78  72 SE15      29.76F HX 101
*ROBSTOWN      PTSUNNY   90  78  66 SE15      29.75S HX 104
ALICE          SUNNY     91  73  55 S7        29.74S HX  99
KINGSVILLE NAS MOSUNNY   88  80  77 SE14      29.74F HX 104
COTULLA        SUNNY     96  65  35 S9        29.72F HX  98
*FAITH RANCH   SUNNY     91  70  49 SE8       29.73F HX  97
LAREDO         SUNNY     95  70  44 SE13      29.74F HX 101
$$

TXZ248>255-012300-
DEEP SOUTH TEXAS

CITY           SKY/WX    TMP DP  RH WIND       PRES   REMARKS
BROWNSVILLE    MOSUNNY   88  81  79 SE15G22   29.76S HX 106
PORT ISABEL    PTSUNNY   88  78  72 SE17      29.75S HAZE    HX 101
*SOUTH PADRE   SUNNY     90  79  70 S14G20    29.76S HX 105
HARLINGEN      PTSUNNY   90  78  68 SE17G23   29.73F HX 104
*HEBBRONVILLE  MOSUNNY   91  71  50 SE10      29.76S HX  97
MCALLEN        MOSUNNY   91  77  63 SE14      29.73F HX 104
*WESLACO       MOSUNNY   91  70  49 S15G25    29.73F HX  97
FALFURRIAS     SUNNY     91  73  54 S10       29.73F HX  99
EDINBURG       SUNNY     93  72  50 S14       29.73S HX 101
*ZAPATA        MOSUNNY   94  67  41 S9        29.71F HX  97
$$

TXZ213>215-236>238-242>244-246-247-251-254-255-012300-
CMAN STATIONS

STATION/POSITION TIME  TEMP    WIND        PRES    WAVE
                       AIR SEA DIR/SP/G            HT/PER
                 (UTC) (F)     (DEG/KT/KT) (MB)    (FT/S)
SABINE PASS      2200   83 83  190/  9/ 12 1009.5
SEA RIM ST PARK  2100   83     160/  8/ 10 1009.9
NORTH JETTY/GLS  2200   83 82  200/ 10/ 12   N/A
EAGLE POINT      2200   84 85  180/ 14/ 15 1008.9
MORGANS POINT    2200   85     150/  6/ 13 1008.6
PORT O`CONNOR    2200          140/ 11/ 12   N/A
PORT ARANSAS     2100   83 84  130/ 10/ 11 1009.2
MALAQUITE BEACH  2200   83 84  130/ 10/ 12 1007.5
BAFFIN BAY       2200   84 88  140/ 12/ 17 1007.7
PORT ISABEL      2200   86 83  150/ 15/ 21 1008.1
$$

GMZ080-GMZ150>470-012300-
OFFSHORE BUOY REPORTS

STATION/POSITION TIME  TEMP    WIND        PRES    WAVE
                       AIR SEA DIR/SP/G            HT/PER
                 (UTC) (F)     (DEG/KT/KT) (MB)    (FT/S)
20 E GALVESTON   2200   83 84  170/  6/  8 1009.0    2/ 4
90 E PT ARANSAS  2200   83 84  140/ 10/ 12 1009.5    2/ 5
35 NE PT MANSFLD 2200   84 84  150/ 14/ 16 1007.4    2/ 5
200 E PT ISABEL  2200   84 85  170/ 12/ 14 1010.4    2/ 5
$$